DW2770 Cefalu IT current weather conditions

sailwx.info

Wind from 202

Air temperature 17.8° C
Dewpoint 12.9° C

Last reported at 2014-Oct-25 22:20 UTC.
Time now 2014-Oct-26 05:20 UTC

Location: N 38°02' E 014°02'.
View on Google Maps.

See reports from other nearby stations

  
Tides and Currents Weather Stations Pressure Air Temp Water Temp Dewpoint Dewpoint Depression Visibility Wind Speed Wind Dir Waves Ship Positions
date/time (UTC)wind fromknots sea level pressurealtimeterstation pressurevisibilityair tempwater tempwave heightnotes
2014-Oct-25 22:20 202 17.8
2014-Oct-25 22:10 202 1 gusting 2 17.2
2014-Oct-25 22:00 200 2 gusting 2 17.2
2014-Oct-25 21:50 202 2 gusting 2 17.2
2014-Oct-25 21:40 180 0 gusting 1 17.2
2014-Oct-25 21:30 202 1 gusting 4 17.2
2014-Oct-25 21:20 186 4 gusting 4 17.2
2014-Oct-25 21:10 202 0 gusting 4 17.8
2014-Oct-25 21:00 202 4 gusting 4 17.8
2014-Oct-25 20:50 068 17.8
2014-Oct-25 20:40 17.8
2014-Oct-25 20:30 074 17.2
2014-Oct-25 20:20 202 2 gusting 2 17.2
2014-Oct-25 20:10 202 0 gusting 1 17.2
2014-Oct-25 20:00 180 17.2
2014-Oct-25 19:50 180 0 gusting 4 17.2
2014-Oct-25 19:40 202 0 gusting 4 17.2
2014-Oct-25 19:30 199 5 gusting 6 17.2
2014-Oct-25 19:20 180 2 gusting 5 16.7
2014-Oct-25 19:10 202 4 gusting 5 16.7
2014-Oct-25 19:00 201 16.7
2014-Oct-25 18:50 168 2 gusting 2 16.7
2014-Oct-25 18:40 202 1 gusting 5 16.7
2014-Oct-25 15:19 068 3 gusting 5 18.3
2014-Oct-25 15:09 106 18.9
2014-Oct-25 14:59 087 2 gusting 5 18.9
2014-Oct-25 14:49 068 18.3
2014-Oct-25 14:39 045 1 gusting 4 18.3
2014-Oct-25 14:29 090 2 gusting 2 18.3
2014-Oct-25 14:19 112 2 gusting 4 18.3
2014-Oct-25 14:09 085 1 gusting 5 18.9
2014-Oct-25 13:59 030 2 gusting 4 18.9
2014-Oct-25 13:49 068 4 gusting 6 18.9
2014-Oct-25 13:39 045 2 gusting 5 18.9
2014-Oct-25 13:29 349 0 gusting 2 18.9
2014-Oct-25 13:19 090 2 gusting 6 19.4
2014-Oct-25 13:09 066 2 gusting 6 20.0
2014-Oct-25 12:59 268 2 gusting 2 20.0
2014-Oct-25 12:49 315 1 gusting 4 20.0
2014-Oct-25 12:39 159 0 gusting 6 20.0
2014-Oct-25 12:29 289 2 gusting 2 20.0
2014-Oct-25 12:19 338 20.6
2014-Oct-25 12:09 273 2 gusting 2 20.0
2014-Oct-25 11:59 251 2 gusting 2 20.0
2014-Oct-25 11:49 270 2 gusting 2 20.0
2014-Oct-25 11:39 270 1 gusting 2 20.6
2014-Oct-25 11:29 257 1 gusting 2 20.0
2014-Oct-25 11:19 292 2 gusting 4 20.0
2014-Oct-25 11:09 248 4 gusting 4 20.6
2014-Oct-25 10:59 340 4 gusting 4 20.0
2014-Oct-25 10:49 292 2 gusting 4 20.0
2014-Oct-25 10:39 292 2 gusting 2 19.4
2014-Oct-25 10:29 286 2 gusting 4 20.0
2014-Oct-25 10:19 248 20.0
2014-Oct-25 10:09 225 19.4
2014-Oct-25 09:59 122 19.4
2014-Oct-25 09:49 338 19.4
2014-Oct-25 09:39 068 18.9
2014-Oct-25 09:29 045 1 gusting 4 19.4
2014-Oct-25 09:19 068 2 gusting 5 18.9
2014-Oct-25 09:09 090 2 gusting 4 18.9
2014-Oct-25 08:59 068 4 gusting 5 18.9
2014-Oct-25 08:49 068 1 gusting 2 18.9
2014-Oct-25 08:39 068 1 gusting 1 18.3
2014-Oct-25 08:29 068 1 gusting 4 18.3
2014-Oct-25 08:19 068 2 gusting 4 18.3
2014-Oct-25 08:09 068 1 gusting 2 18.3
2014-Oct-25 07:59 077 1 gusting 2 18.3
2014-Oct-25 07:49 112 18.3
2014-Oct-25 07:39 180 17.8
2014-Oct-25 07:29 180 17.8
2014-Oct-25 07:19 202 17.8
2014-Oct-25 07:09 202 0 gusting 1 17.2
2014-Oct-25 06:59 171 17.2
2014-Oct-25 06:49 202 16.7
2014-Oct-25 06:39 202 1 gusting 2 16.7
2014-Oct-25 06:29 177 16.7
2014-Oct-25 06:19 180 1 gusting 2 16.7
2014-Oct-25 06:09 16.7
2014-Oct-25 05:59 090 16.7
2014-Oct-25 05:49 045 16.7
2014-Oct-25 05:39 180 17.2
2014-Oct-25 05:29 193 1 gusting 5 17.2
2014-Oct-25 05:19 180 17.2
2014-Oct-25 05:09 180 0 gusting 2 16.7
2014-Oct-25 04:59 180 1 gusting 2 16.7
2014-Oct-25 04:49 202 1 gusting 1 16.7
2014-Oct-25 04:39 202 0 gusting 0 16.7
2014-Oct-25 04:29 202 16.7
2014-Oct-25 04:19 180 1 gusting 2 16.7
2014-Oct-25 04:09 202 2 gusting 2 16.7
2014-Oct-25 03:59 190 2 gusting 4 16.7
2014-Oct-25 03:49 180 16.7
2014-Oct-25 03:29 180 1 gusting 4 16.7
2014-Oct-25 03:19 202 4 gusting 4 16.7
2014-Oct-25 03:09 180 1 gusting 1 16.7
2014-Oct-25 02:59 198 16.7
2014-Oct-25 02:49 180 0 gusting 5 16.7
2014-Oct-25 02:39 182 2 gusting 2 16.7
2014-Oct-25 02:29 180 2 gusting 6 16.1
2014-Oct-25 02:19 185 3 gusting 6 16.1
2014-Oct-25 02:09 180 1 gusting 4 15.6
2014-Oct-25 01:59 188 4 gusting 4 15.6
2014-Oct-25 01:49 159 2 gusting 6 15.6
2014-Oct-25 01:39 180 4 gusting 4 15.6
2014-Oct-25 01:29 180 2 gusting 6 15.6
2014-Oct-25 01:19 181 5 gusting 6 15.6
2014-Oct-25 01:09 202 4 gusting 5 15.6
2014-Oct-25 00:59 202 4 gusting 6 15.6
2014-Oct-25 00:49 180 0 gusting 4 15.6
2014-Oct-25 00:39 158 1 gusting 4 15.6
2014-Oct-25 00:29 180 4 gusting 7 15.6
2014-Oct-25 00:19 183 2 gusting 4 15.6
2014-Oct-25 00:09 202 4 gusting 5 16.1
2014-Oct-24 23:59 186 2 gusting 5 16.1
2014-Oct-24 23:49 202 2 gusting 6 16.7
2014-Oct-24 23:39 248 5 gusting 6 17.2
2014-Oct-24 23:29 175 1 gusting 7 17.8
2014-Oct-24 23:19 182 6 gusting 8 17.8
2014-Oct-24 23:09 225 6 gusting 8 17.8
2014-Oct-24 22:59 202 7 gusting 10 17.8
2014-Oct-24 22:49 199 5 gusting 8 17.2
2014-Oct-24 22:39 202 6 gusting 8 17.8
2014-Oct-24 22:29 202 5 gusting 7 17.8
2014-Oct-24 22:19 186 5 gusting 12 17.8
2014-Oct-24 22:09 202 5 gusting 7 17.8
2014-Oct-24 21:59 220 6 gusting 7 17.8
2014-Oct-24 21:49 245 6 gusting 7 17.8
2014-Oct-24 21:39 194 4 gusting 4 17.8
2014-Oct-24 21:29 247 2 gusting 6 17.8
2014-Oct-24 21:19 206 5 gusting 7 17.8
2014-Oct-24 21:09 202 3 gusting 5 17.8
2014-Oct-24 20:59 222 0 gusting 4 17.2
2014-Oct-24 20:49 211 4 gusting 5 17.2
2014-Oct-24 20:39 225 7 gusting 8 17.8
2014-Oct-24 20:29 188 1 gusting 4 17.2
2014-Oct-24 20:19 202 2 gusting 6 17.2
2014-Oct-24 20:09 068 16.7
2014-Oct-24 19:59 202 1 gusting 1 17.2
2014-Oct-24 19:49 135 17.2
2014-Oct-24 19:39 202 4 gusting 5 17.2
2014-Oct-24 19:29 202 1 gusting 5 17.2
2014-Oct-24 19:19 239 2 gusting 4 16.7
2014-Oct-24 19:09 202 5 gusting 5 17.2
2014-Oct-24 18:59 202 4 gusting 4 17.2
2014-Oct-24 18:49 180 4 gusting 6 17.2
2014-Oct-24 18:39 17.2
2014-Oct-24 18:29 225 16.7
2014-Oct-24 18:19 202 2 gusting 2 16.7
2014-Oct-24 18:09 202 1 gusting 2 17.2
2014-Oct-24 17:59 202 3 gusting 6 17.2
2014-Oct-24 17:49 202 1 gusting 4 17.2
2014-Oct-24 17:39 249 2 gusting 4 17.8
2014-Oct-24 17:29 311 1 gusting 4 17.8
2014-Oct-24 17:19 236 2 gusting 6 17.8
2014-Oct-24 17:09 135 3 gusting 6 17.8
2014-Oct-24 16:59 292 2 gusting 6 17.8
2014-Oct-24 16:49 203 1 gusting 2 17.8
2014-Oct-24 16:39 315 5 gusting 7 17.8
2014-Oct-24 16:29 250 5 gusting 5 17.8
2014-Oct-24 16:19 273 4 gusting 6 17.8
2014-Oct-24 16:09 248 7 gusting 8 17.8
2014-Oct-24 15:59 292 3 gusting 6 17.8
2014-Oct-24 15:49 264 6 gusting 6 17.8
2014-Oct-24 15:39 315 2 gusting 10 17.8
2014-Oct-24 15:29 292 8 gusting 10 18.3
2014-Oct-24 15:19 301 4 gusting 8 17.8
2014-Oct-24 15:09 248 6 gusting 7 18.3
2014-Oct-24 14:59 292 6 gusting 6 17.8
2014-Oct-24 14:49 236 5 gusting 7 17.8
2014-Oct-24 14:19 254 6 gusting 6 18.3
2014-Oct-24 14:09 248 4 gusting 11 18.3
2014-Oct-24 13:48 225 5 gusting 5 17.8
2014-Oct-24 13:38 281 1 gusting 2 17.8
2014-Oct-24 13:28 270 6 gusting 10 17.8
2014-Oct-24 13:18 292 8 gusting 10 17.8
2014-Oct-24 13:08 248 8 gusting 8 17.8
2014-Oct-24 12:58 202 5 gusting 6 17.8
2014-Oct-24 12:48 270 4 gusting 7 18.3
2014-Oct-24 12:38 275 7 gusting 8 18.3
2014-Oct-24 12:28 18.3
2014-Oct-24 12:18 270 3 gusting 6 18.3
2014-Oct-24 12:08 305 6 gusting 6 18.3
2014-Oct-24 11:58 250 5 gusting 6 18.3
2014-Oct-24 11:48 270 2 gusting 6 18.3
2014-Oct-24 11:38 276 2 gusting 6 18.3
2014-Oct-24 11:28 209 2 gusting 6 18.3
2014-Oct-24 11:18 338 3 gusting 5 18.3
2014-Oct-24 11:08 330 1 gusting 8 17.8
2014-Oct-24 10:58 224 3 gusting 10 17.8
2014-Oct-24 10:48 270 4 gusting 8 17.8
2014-Oct-24 10:38 285 5 gusting 6 18.3
2014-Oct-24 10:28 273 6 gusting 6 18.3
2014-Oct-24 10:18 315 0 gusting 2 18.3
2014-Oct-24 10:08 068 0 gusting 4 18.3
2014-Oct-24 09:58 292 2 gusting 4 18.3
2014-Oct-24 09:48 292 2 gusting 6 18.3
2014-Oct-24 09:38 264 4 gusting 7 17.8
2014-Oct-24 09:28 293 1 gusting 7 17.8
2014-Oct-24 09:18 315 4 gusting 7 17.2
2014-Oct-24 09:08 292 7 gusting 10 17.2
2014-Oct-24 08:58 296 8 gusting 10 17.2
2014-Oct-24 08:48 270 7 gusting 10 17.2
2014-Oct-24 08:38 338 1 gusting 8 17.2
2014-Oct-24 08:28 225 4 gusting 8 17.2
2014-Oct-24 08:18 045 0 gusting 4 17.2
2014-Oct-24 08:08 236 2 gusting 7 17.2
2014-Oct-24 07:58 120 16.7
2014-Oct-24 07:48 045 4 gusting 6 16.7
2014-Oct-24 07:38 181 16.7
2014-Oct-24 07:28 068 4 gusting 4 16.7
2014-Oct-24 07:18 248 2 gusting 5 16.7
2014-Oct-24 07:08 295 1 gusting 2 16.7
2014-Oct-24 06:58 248 1 gusting 6 16.7
2014-Oct-24 06:48 270 6 gusting 6 16.7
2014-Oct-24 06:38 286 1 gusting 6 16.7
2014-Oct-24 06:28 248 4 gusting 6 16.7
2014-Oct-24 06:18 315 2 gusting 4 16.7
2014-Oct-24 06:08 254 4 gusting 4 16.7
2014-Oct-24 05:58 225 0 gusting 6 16.1
2014-Oct-24 05:48 202 2 gusting 4 16.1
2014-Oct-24 05:38 225 2 gusting 7 16.1
2014-Oct-24 05:28 248 4 gusting 7 16.1
2014-Oct-24 05:18 090 2 gusting 7 16.1
2014-Oct-24 05:08 338 2 gusting 5 15.6